Regional Weather Roundup
Issued by NWS

Home | Current Version | Previous Version | Graphics & Text | Print | Product List | Glossary Off
Versions: 1 2 3 4 5 6 7 8 9 10 11 12 13 14 15 16 17 18 19 20 21 22 23 24 25 26 27 28 29 30 31 32 33 34 35 36 37 38 39 40 41 42 43 44 45 46 47 48 49 50

000
ASUS43 KMKX 272200
RWRWI

WISCONSIN REGIONAL WEATHER ROUNDUP
NATIONAL WEATHER SERVICE MILWAUKEE/SULLIVAN WI
500 PM CDT THU AUG 27 2015

NOTE: "FAIR" INDICATES FEW OR NO CLOUDS BELOW 12,000 FEET WITH NO
SIGNIFICANT WEATHER AND/OR OBSTRUCTIONS TO VISIBILITY.

WIZ001-002-006>008-014>016-023>028-272300-
NORTHWEST WISCONSIN

CITY           SKY/WX    TMP DP  RH WIND       PRES   REMARKS
SUPERIOR ARPT  PTSUNNY   62  51  69 NE5       30.02S
ASHLAND        FAIR      74  59  59 SW9       30.03S
HAYWARD        CLOUDY    71  57  61 S10       30.05S
SIREN          PTSUNNY   74  58  58 S10       30.04R
CUMBERLAND     CLOUDY    70  55  60 S7        30.06R
RICE LAKE      CLOUDY    72  56  57 S7        30.07R
CHETEK         CLOUDY   N/A N/A N/A S5        30.06R
LADYSMITH      CLOUDY    73  57  56 S9        30.08S
EAU CLAIRE     NOT AVBL
MENOMONIE      FAIR      73  58  60 S6        30.07R
NEW RICHMOND   CLOUDY    71  57  61 S9        30.06R
OSCEOLA        CLOUDY    72  59  63 S10       30.07R
$$

WIZ003>005-009-010-017-018-272300-
NORTH CENTRAL WISCONSIN

CITY           SKY/WX    TMP DP  RH WIND       PRES   REMARKS
MANITOWISH WTR FAIR      73  52  47 SW9       30.06F
ARBOR VITAE    FAIR      74  55  50 S7        30.06F
WOODRUFF       FAIR      74  55  50 S7        30.06F
RHINELANDER    FAIR      73  53  49 S8        30.09S
EAGLE RIVER    FAIR      72  51  47 SW7       30.07F
LAND O LAKES   FAIR      73  52  46 SW6       30.08F
PHILLIPS       FAIR      73  57  57 SW8       30.06S
TOMAHAWK       FAIR      72  54  53 SW5       30.08S
MEDFORD        FAIR      70  57  63 S6        30.08S
MERRILL        FAIR      73  57  55 SW8       30.08F
$$

WIZ029-030-035-036-043>047-272300-
CENTRAL WISCONSIN

CITY           SKY/WX    TMP DP  RH WIND       PRES   REMARKS
WAUSAU         FAIR      74  55  51 SW7       30.07S
MOSINEE        MOSUNNY   73  55  53 S6        30.09S
MARSHFIELD     FAIR      74  54  49 S8        30.08R
STEVENS POINT  FAIR      73  52  46 SW8       30.09S
WAUPACA        FAIR      78  52  40 S6        30.08F
WAUTOMA        NOT AVBL
WISC RAPIDS    FAIR      74  54  49 SW8       30.09S
CAMP DOUGLAS   NOT AVBL
$$

WIZ011>013-019>022-031-037>040-048>050-272300-
NORTHEAST WISCONSIN

CITY           SKY/WX    TMP DP  RH WIND       PRES   REMARKS
ANTIGO         FAIR      72  53  50 SW8       30.09F
SHAWANO        FAIR      76  56  49 SW5       30.08F
OCONTO         FAIR      72  59  63 SE5       30.09S
STURGEON BAY   FAIR      68  57  68 S9        30.13S
GREEN BAY      FAIR      74  58  57 S7        30.09S
MANITOWOC      NOT AVBL
APPLETON       MOSUNNY   73  50  43 S9        30.09S
CLINTONVILLE   FAIR      75  52  43 S8        30.08S
OSHKOSH        FAIR      73  56  54 S9        30.09S
$$

WIZ032>034-041-042-053>061-272300-
SOUTHWEST WISCONSIN

CITY           SKY/WX    TMP DP  RH WIND       PRES   REMARKS
LA CROSSE      FAIR      76  57  51 S13       30.07R
SPARTA         FAIR      74  55  51 SW5       30.09R
VIROQUA        FAIR      71  58  63 S5        30.10R
BOSCOBEL       FAIR      77  57  50 SW7       30.09R
PRAIRIE DU CHI FAIR      76  55  47 SE7       30.07S
PLATTEVILLE    PTSUNNY   73  61  66 S7        30.10S
$$

WIZ056-057-062-063-064-067-068-272300-
SOUTH CENTRAL WISCONSIN

CITY           SKY/WX    TMP DP  RH WIND       PRES   REMARKS
REEDSBURG      FAIR      75  58  55 S10       30.08S
BARABOO/DELLS  FAIR      74  53  48 SW8       30.09S
LONE ROCK      NOT AVBL
MINERAL POINT  FAIR      73  55  53 S6        30.10F
MADISON        PTSUNNY   73  56  54 S6        30.09F
MIDDLETON      FAIR      76  55  48 SW9       30.10S
WATERTOWN      FAIR      74  55  50 S5        30.10F
MONROE         FAIR      72  55  56 S8        30.11F
JANESVILLE     MOSUNNY   73  55  53 SW7       30.11F
$$

WIZ051-052-058>065-066-070>072-272300-
SOUTHEAST WISCONSIN

CITY           SKY/WX    TMP DP  RH WIND       PRES   REMARKS
MILWAUKEE      FAIR      70  54  56 SE15      30.12F
WAUKESHA       MOSUNNY   72  54  53 S7        30.13S
MILWAUKEE/TIMM PTSUNNY   73  52  46 S8        30.12S
RACINE         FAIR      69  52  54 S13       30.15F
BURLINGTON     FAIR      71  54  53 SE5       30.13S
KENOSHA        FAIR      70  52  52 SE13      30.14S
FOND DU LAC    FAIR      74  56  53 VRB5      30.10F
SHEBOYGAN      FAIR      70  57  63 S9        30.11F
WEST BEND      FAIR      73  52  46 CALM      30.11S
JUNEAU         FAIR      72  55  56 S7        30.11F
$$

LSZ147-162-272300-
LAKE SUPERIOR

STATION/POSITION TIME  TEMP    WIND        PRES    WAVE
                       AIR SEA DIR/SP/G            HT/PER
                 (UTC) (F)     (DEG/KT/KT) (MB)    (FT/S)
W MID LAKE BUOY  2050   58 58   60/  4/  4 1017.5F   0
DEVILS ISLAND    2100   58      60/  7/  9 1017.2F
PORT WING        2100   61      30/ 11/ 12 1016.6F
SAXON HARBOR     2100   67      50/  3/  5 1016.6F
$$

LMZ867-665-643>646-272300-
LAKE MICHIGAN

STATION/POSITION TIME  TEMP    WIND        PRES    WAVE
                       AIR SEA DIR/SP/G            HT/PER
                 (UTC) (F)     (DEG/KT/KT) (MB)    (FT/S)
CHAMBERS ISLAND  2100   67     160/  3/  8 1019.0F
S GREEN BAY BUOY 2100   65     130/  2/  2 1020.5F
N MID LAKE BUOY  2050   60 65  200/ 10/ 12 1019.5F   1
NORTHPORT PIER   2100   63     150/  8/ 11 1019.3F
SISTER BAY       2119   70     180/ 11/ 12   N/A
ALGOMA LAKESHORE 2114          210/  9/ 10   N/A
KEWAUNEE LAKESHO 2100   53     180/  9/ 10 1018.8
SHEBOYGAN LAKESH 2100   61     180/ 21/ 22 1020.2F
PORT WASHINGTON  2140   61     200/  5/  9 1020.7F
ATWATER BUOY     2100   55 47  150/ 10/ 12 1021.4F
MILWAUKEE LAKESH 2100   56     140/ 15/ 15   N/A
S MID LAKE BUOY  2050   66 68  200/  6/  8 1021.3F
KENOSHA   LAKESH 2100   60     150/ 13/ 14 1020.3F
$$

TC  - TEMPERATURE IN CELSIUS
VSB - VISIBILITY IN STATUTE MILES
WCI - WIND CHILL INDEX
HX  - HEAT INDEX




USA.gov is the U.S. government's official web portal to all federal, state and local government web resources and services.